Regional Weather Roundup
Issued by NWS

Home | Current Version | Previous Version | Graphics & Text | Print | Product List | Glossary On
Versions: 1 2 3 4 5 6 7 8 9 10 11 12 13 14 15 16 17 18 19 20 21 22 23 24 25 26 27 28 29 30 31 32 33 34 35 36 37 38 39 40 41 42 43 44 45 46 47 48 49 50
000
ASUS43 KLSX 170210
RWRMO

WEATHER SUMMARY FOR MISSOURI
NATIONAL WEATHER SERVICE SPRINGFIELD MO
800 PM CST MON JAN 16 2017

NOTE: "FAIR" INDICATES FEW OR NO CLOUDS BELOW 12,000 FEET WITH NO
       SIGNIFICANT WEATHER AND/OR OBSTRUCTIONS TO VISIBILITY.
       CURRENT SKY AND/OR WEATHER CONDITIONS ARE NOT AVAILABLE FOR
       CHILLICOTHE AND FARMINGTON.

MOZ001>031-035>038-043-044-053-054-170300-
...NORTHERN AND WESTERN MISSOURI...

CITY           SKY/WX    TMP DP  RH WIND       PRES   REMARKS
KANSAS CTY INT CLOUDY    40  39  97 SW10      29.90R
KANSAS C DTWN  CLOUDY    42  39  89 SW9G20    29.91R
LEE`S SUMMIT   CLOUDY    42  32  67 SW15      29.91R
ST JOSEPH      CLOUDY    37  37 100 NW6       29.90R
CHILLICOTHE      N/A     45  44  97 VRB5      29.88S
KIRKSVILLE     LGT RAIN  40  40 100 NE5       29.85F FOG

$$
MOZ066>068-077>081-088>096-101>105-170300-
...SOUTHWEST MISSOURI...

CITY           SKY/WX    TMP DP  RH WIND       PRES   REMARKS
SPRINGFIELD    CLOUDY    47  40  76 W22G30    29.95R
JOPLIN         CLOUDY    43  36  76 SW16G24   30.00R
BRANSON        CLEAR     54  45  71 W9        29.94R

$$
MOZ032>034-039>042-045>050-055>058-069>072-170300-
...CENTRAL MISSOURI...

CITY           SKY/WX    TMP DP  RH WIND       PRES   REMARKS
COLUMBIA       LGT RAIN  55  53  93 W18G25    29.85R
JEFFERSON CITY LGT RAIN  57  54  89 S12       29.84S
ROLLA          CLOUDY    56  56 100 S13       29.85S
SEDALIA        CLOUDY    49  45  86 W13G22    29.90R
WHITEMAN AFB   CLOUDY    44  44 100 W16G23    29.89R
WARRENSBURG    CLOUDY    43  39  87 SW15      29.91R
OSAGE BEACH    CLOUDY    56  52  86 W13G20    29.88R

$$
MOZ051-052-059>065-170300-
...EAST CENTRAL MISSOURI...

CITY           SKY/WX    TMP DP  RH WIND       PRES   REMARKS
ST LOUIS INTL  CLOUDY    56  53  90 SE9       29.87F FOG
SPIRIT OF STL  FOG       51  51 100 E5        29.87F VSB 1
ST CHARLES     FOG       51  51 100 E6        29.87F VSB 1/4

$$
MOZ072>076-082>087-097>100-106>115-170300-
...SOUTH CENTRAL AND SOUTHEAST MISSOURI...

CITY           SKY/WX    TMP DP  RH WIND       PRES   REMARKS
CAPE GIRARDEAU CLOUDY    62  58  86 S16       29.93S
FARMINGTON     CLOUDY    58  57  97 SW3       29.92S
POPLAR BLUFF   CLOUDY    62  61  96 S12       29.92F
WEST PLAINS    CLOUDY    60  58  92 S10       29.92S

$$




USA.gov is the U.S. government's official web portal to all federal, state and local government web resources and services.